Printer-friendly version

IAU Minor Planet Center

Minor Planet Center

MPEC 2006-V05 : 2006 UP217

The following Minor Planet Electronic Circular may be linked-to from your own Web pages, but must not otherwise be redistributed electronically.


Read MPEC 2006-V04 Read MPEC 2006-V06


M.P.E.C. 2006-V05                                Issued 2006 Nov. 1, 13:41 UT

     The Minor Planet Electronic Circulars contain information on unusual
         minor planets and routine data on comets.  They are published
   on behalf of Commission 20 of the International Astronomical Union by the
          Minor Planet Center, Smithsonian Astrophysical Observatory,
                          Cambridge, MA 02138, U.S.A.

             Prepared using the Tamkin Foundation Computer Network

                              MPC@CFA.HARVARD.EDU
          URL http://cfa-www.harvard.edu/iau/mpc.html  ISSN 1523-6714

                                  2006 UP217

Observations:
     K06UL7P* C2006 10 31.22331 02 19 19.12 +10 01 46.3          19.9 V EV005G96
     K06UL7P  C2006 10 31.23073 02 19 16.68 +10 01 38.0          19.8 V EV005G96
     K06UL7P  C2006 10 31.23809 02 19 14.26 +10 01 29.6          20.0 V EV005G96
     K06UL7P  C2006 10 31.24560 02 19 11.82 +10 01 21.2          19.8 V EV005G96
     K06UL7P  C2006 10 31.30474 02 18 52.34 +10 00 12.5          19.8 V EV005G96
     K06UL7P  C2006 10 31.31192 02 18 50.00 +10 00 03.9          19.9 V EV005G96
     K06UL7P  C2006 10 31.31906 02 18 47.66 +09 59 55.8          19.8 V EV005G96
     K06UL7P  C2006 10 31.32625 02 18 45.32 +09 59 47.1          19.8 V EV005G96
     K06UL7P pC2006 11 01.03269 02 15 36.71 +09 46 37.9                 EV005J95
     K06UL7P  C2006 11 01.03593 02 15 35.95 +09 46 35.3                 EV005J95
     K06UL7P  C2006 11 01.03866 02 15 35.11 +09 46 32.8          19.6 R EV005J95
     K06UL7P  C2006 11 01.13111 02 15 17.21 +09 45 16.3          20.5 R EV005H36
     K06UL7P  C2006 11 01.15165 02 15 11.79 +09 44 57.3          20.4 R EV005H36
     K06UL7P  C2006 11 01.15546 02 15 12.05 +09 45 00.6          20.4 V EV005G96
     K06UL7P  C2006 11 01.16543 02 15 09.38 +09 44 51.6          20.0 V EV005G96
     K06UL7P  C2006 11 01.17218 02 15 06.31 +09 44 39.0          20.3 R EV005H36
     K06UL7P  C2006 11 01.17539 02 15 06.73 +09 44 42.3          19.9 V EV005G96
     K06UL7P  C2006 11 01.22686 02 14 52.83 +09 43 54.7          20.3 V EV005G96
     K06UL7P  C2006 11 01.23264 02 14 51.28 +09 43 49.5          19.6 V EV005G96
     K06UL7P  C2006 11 01.23840 02 14 49.70 +09 43 44.0          20.0 V EV005G96
     K06UL7P  C2006 11 01.24415 02 14 48.15 +09 43 38.6          19.6 V EV005G96
     K06UL7P 5C2006 11 01.26979 02 14 41.84 +09 43 11.2          20.6 R EV005673
     K06UL7P 5C2006 11 01.27639 02 14 40.00 +09 43 04.7                 EV005673
     K06UL7P 5C2006 11 01.28345 02 14 38.19 +09 42 58.6                 EV005673
     K06UL7P 5C2006 11 01.29387 02 14 35.37 +09 42 48.9                 EV005673
     K06UL7P  C2006 11 01.33585 02 14 23.39 +09 42 13.2          19.9 R EV005854
     K06UL7P  C2006 11 01.34163 02 14 21.90 +09 42 05.2          20.2 R EV005854
     K06UL7P  C2006 11 01.34742 02 14 20.38 +09 41 58.2          20.2 R EV005854
     K06UL7P  C2006 11 01.36481 02 14 15.76 +09 41 44.5          19.9 R EV005854

Observer details:
673 Table Mountain Observatory, Wrightwood.  Observer J. Young.  0.61-m f/16
    Cassegrain + CCD.
854 Sabino Canyon Observatory, Tucson.  Observer J. E. McGaha.  0.36-m f/10.0
    Schmidt-Cassegrain + CCD.
G96 Mt. Lemmon Survey.  Observer R. A. Kowalski.  Measurers E. C. Beshore,
    E. J. Christensen, G. J. Garradd, A. R. Gibbs, A. D. Grauer, R. E. Hill,
    R. A. Kowalski, S. M. Larson, R. H. McNaught.  1.5-m reflector + CCD.
H36 Sandlot Observatory, Scranton.  Observer G. Hug.  0.30-m
    Schmidt-Cassegrain + CCD.
J95 Great Shefford.  Observer P. Birtwhistle.  0.40-m f/6.0 Schmidt-Cassegrain
    + CCD.

Orbital elements:
2006 UP217                                               Earth MOID = 0.0011 AU
Epoch 2006 Sept. 22.0 TT = JDT 2454000.5                MPC
M  20.68655              (2000.0)            P               Q
n   0.74603422     Peri.   83.04735     +0.34073091     +0.94008449
a   1.2040103      Node   206.88367     -0.87270712     +0.31151787
e   0.4888469      Incl.    1.51860     -0.34969234     +0.13855602
P   1.32           H   24.9           G   0.15           U   9
Residuals in seconds of arc
061031 G96  0.2-  0.1-    061101 J95  0.3-  0.3+    061101 G96  0.3-  0.2-
061031 G96  0.1-  0.1+    061101 H36  0.7-  0.3+    061101 673  0.1+  0.2-
061031 G96  0.0   0.1+    061101 H36  0.7+  0.3+    061101 673  0.8-  0.6-
061031 G96  0.5+  0.3+    061101 G96  0.2-  0.0     061101 673  0.6+  0.0
061031 G96  0.1-  0.1+    061101 G96  0.4-  0.1+    061101 673  0.4+  0.1+
061031 G96  0.0   0.1-    061101 H36  1.6+  1.2+    061101 854  0.5-  1.4+
061031 G96  0.1-  0.1+    061101 G96  0.2-  0.1-    061101 854  0.3+  1.0-
061031 G96  0.1-  0.1-    061101 G96  0.5-  0.2-    061101 854 (0.5+  2.3-)
061101 J95  0.7-  0.7-    061101 G96  0.2-  0.1-    061101 854  0.0   0.9+
061101 J95  1.1+  0.0     061101 G96  0.4-  0.2-

Ephemeris:
2006 UP217               a,e,i = 1.20, 0.49, 2                   q = 0.6154
Date    TT    R. A. (2000) Decl.     Delta      r     Elong.  Phase     V
2006 11 01    02 15.77   +09 48.3    0.0885   1.081   175.1     4.5    20.2
2006 11 02    02 12.00   +09 33.0    0.0973   1.089   173.6     5.8    20.5
2006 11 03    02 08.87   +09 20.4    0.106    1.097   172.1     7.1    20.8
2006 11 04    02 06.25   +09 09.8    0.115    1.106   170.6     8.4    21.0
2006 11 05    02 04.03   +09 01.0    0.124    1.114   169.1     9.7    21.2
2006 11 06    02 02.14   +08 53.7    0.133    1.122   167.7    10.8    21.5
2006 11 07    02 00.51   +08 47.5    0.143    1.130   166.4    11.9    21.7
2006 11 08    01 59.12   +08 42.3    0.152    1.138   165.1    13.0    21.8
2006 11 09    01 57.91   +08 38.0    0.161    1.146   163.8    14.0    22.0
2006 11 10    01 56.87   +08 34.4    0.171    1.154   162.6    14.9    22.2
2006 11 11    01 55.98   +08 31.5    0.180    1.162   161.4    15.8    22.4

Timothy B. Spahr             (C) Copyright 2006 MPC           M.P.E.C. 2006-V05

Read MPEC 2006-V04 Read MPEC 2006-V06


Our Web policy. Index to the CBAT/MPC/ICQ pages.


Valid HTML 4.01!